User: anonymous   Login
Location: Theydon Bois
(51.6750°N, 0.1050°E)
Time: 04:12:24
(UTC+01:00)
Language:

Helios 1A - Orbit

View from above orbital plane
View from above orbital plane
View from above satellite
View from above satellite

Ground track
Ground track

The orbit data is extracted from the following two-line orbital elements,

1 23605U 95033A   18162.88291858 0.00000000  00000-0  00000-0 0    06
2 23605  98.2105 230.2613 0013825 351.7125   8.2874 14.91023631    02
Epoch (UTC): 11 June 2018 21:11:24
Eccentricity: 0.0013825
inclination: 98.2105°
perigee height: 585 km
apogee height: 604 km
right ascension of ascending node: 230.2613°
argument of perigee: 351.7125°
revolutions per day: 14.91023631
mean anomaly at epoch: 8.2874°
orbit number at epoch: 0

The dashed part of the orbit path shows where the satellite is in the earth's shadow,  

DLR